Simultaneous Nadir Overpasses (SNOs) Predictions

Prediction of SNOs between AQUA and GOES-15 Satellite Orbit:

Table of predicted SNOs for the next 14.0 days since TLE Epoch: 11/30/2024
Index Date Time (AQUA) AQUA Lat,Lon GOES-15 Lat,Lon Distance(km) Time Diff (sec)
1 11/30/2024 10:28:59 -0.57, 58.76 0.04, 61.60 322.67 80
2 12/02/2024 10:10:22 0.42, 63.31 0.02, 61.58 197.75 80
3 12/02/2024 22:29:58 0.57, 58.57 -0.04, 61.48 330.73 80
4 12/04/2024 22:11:18 -0.36, 63.14 -0.03, 61.47 189.31 80
5 12/05/2024 10:31:01 -0.67, 58.38 0.04, 61.57 364.22 80
6 12/07/2024 10:12:20 0.34, 62.94 0.04, 61.57 156.83 80
7 12/07/2024 22:31:55 0.65, 58.21 -0.05, 61.46 370.32 80
8 12/09/2024 22:13:11 -0.30, 62.79 -0.04, 61.46 151.01 80
9 12/10/2024 10:32:53 -0.72, 58.03 0.05, 61.57 403.10 80
10 12/12/2024 10:14:07 0.25, 62.62 0.04, 61.57 119.05 80
11 12/12/2024 22:33:41 0.74, 57.89 -0.06, 61.46 406.96 80
